Spring Hill, FL

1:57 PM EDT on August 26, 2016 (GMT -0400)
Hernando County

Weather History for KBKV - February, 2012

Change the Weather History Date:

Tuesday, February 7, 2012

  Actual Average Record
Temperature  
Mean Temperature 64 °F -  
Max Temperature 66 °F 69 °F 81 °F (2013)
Min Temperature 61 °F 44 °F 28 °F (2009)
Degree Days  
Heating Degree Days 1    
Growing Degree Days 14 (Base 50)    
Moisture  
Dew Point 62 °F    
Average Humidity 93    
Maximum Humidity 100    
Minimum Humidity 81    
Precipitation  
Precipitation 0.00 in - - ()
Sea Level Pressure  
Sea Level Pressure 30.08 in    
Wind  
Wind Speed 6 mph (NE)    
Max Wind Speed 12 mph    
Max Gust Speed -    
Visibility 7 miles    
Events      
Averages and records for this station are not official NWS values.
T = Trace of Precipitation, MM = Missing Value Source: NWS Daily Summary

Daily Weather History Graph

Daily Weather History Graph

Search for Another Location

Airport or City:

Trip Planner

Search our weather history database for the weather conditions in past years. The results will help you decide how hot, cold, wet, or windy it might be!

Date:

Astronomy

Feb. 07, 2012 Rise Set
Actual Time 7:14 AM EST 6:13 PM EST
Civil Twilight 6:49 AM EST 6:38 PM EST
Nautical Twilight 6:21 AM EST 7:06 PM EST
Astronomical Twilight 5:54 AM EST 7:34 PM EST
Moon 6:18 PM EST (2/7) 6:45 AM EST (2/7)
Length of Visible Light 11h 48m
Length of Day
10h 59m
Full, 100% of the Moon is Illuminated
Feb 7
Full
Feb 7
Full
Feb 14
Last Quarter
Feb 21
New
Feb 29
First Quarter

Hourly Weather History & Observations

Time (EST) Temp. Dew Point Humidity Pressure Visibility Wind Dir Wind Speed Gust Speed Precip Events Conditions
12:53 AM 66.9 °F 66.0 °F 97% 30.07 in 8.0 mi ENE 5.8 mph - N/A   Overcast
1:15 AM 66.2 °F 66.2 °F 100% 30.07 in 9.0 mi East 4.6 mph - N/A   Overcast
1:53 AM 66.0 °F 64.9 °F 96% 30.06 in 8.0 mi East 6.9 mph - N/A   Overcast
2:53 AM 64.9 °F 64.9 °F 100% 30.05 in 3.0 mi East 4.6 mph - N/A   Overcast
3:53 AM 64.9 °F 64.0 °F 97% 30.05 in 4.0 mi ENE 4.6 mph - N/A   Overcast
4:53 AM 64.9 °F 64.0 °F 97% 30.05 in 6.0 mi ENE 4.6 mph - N/A   Overcast
5:26 AM 64.4 °F 64.4 °F 100% 30.05 in 2.0 mi NE 6.9 mph - N/A   Overcast
5:38 AM 64.4 °F 62.6 °F 94% 30.04 in 3.0 mi NE 6.9 mph - N/A   Overcast
5:53 AM 64.0 °F 63.0 °F 96% 30.05 in 4.0 mi East 6.9 mph - N/A   Overcast
6:04 AM 64.4 °F 62.6 °F 94% 30.05 in 1.8 mi ENE 6.9 mph - N/A   Overcast
6:21 AM 64.4 °F 62.6 °F 94% 30.05 in 3.0 mi East 8.1 mph - N/A   Overcast
6:53 AM 63.0 °F 63.0 °F 100% 30.06 in 7.0 mi NE 6.9 mph - N/A   Overcast
7:45 AM 64.4 °F 62.6 °F 94% 30.09 in 2.5 mi NNE 5.8 mph - N/A   Overcast
7:53 AM 64.0 °F 63.0 °F 96% 30.09 in 1.8 mi NNE 9.2 mph - N/A   Overcast
8:04 AM 62.6 °F 62.6 °F 100% 30.09 in 3.0 mi NE 8.1 mph - N/A   Overcast
8:20 AM 62.6 °F 62.6 °F 100% 30.09 in 1.8 mi NNE 9.2 mph - N/A   Overcast
8:27 AM 62.6 °F 62.6 °F 100% 30.09 in 1.0 mi NNE 10.4 mph - N/A   Overcast
8:37 AM 62.6 °F 62.6 °F 100% 30.10 in 2.0 mi NNE 11.5 mph - N/A   Overcast
8:46 AM 62.6 °F 60.8 °F 94% 30.10 in 6.0 mi NE 8.1 mph - N/A   Overcast
8:53 AM 62.1 °F 61.0 °F 96% 30.10 in 4.0 mi NE 8.1 mph - N/A   Overcast
9:53 AM 63.0 °F 62.1 °F 97% 30.12 in 4.0 mi NE 8.1 mph - N/A   Overcast
10:53 AM 63.0 °F 62.1 °F 97% 30.12 in 8.0 mi NNE 8.1 mph - N/A   Overcast
11:53 AM 64.0 °F 62.1 °F 93% 30.10 in 10.0 mi ENE 8.1 mph - N/A   Overcast
12:53 PM 64.0 °F 62.1 °F 93% 30.09 in 10.0 mi NNE 5.8 mph - N/A   Overcast
1:53 PM 66.0 °F 62.1 °F 87% 30.05 in 10.0 mi NE 9.2 mph - N/A   Overcast
2:01 PM 64.4 °F 60.8 °F 88% 30.05 in 10.0 mi ENE 10.4 mph - N/A   Overcast
2:31 PM 66.2 °F 60.8 °F 83% 30.05 in 10.0 mi NNE 6.9 mph - N/A   Overcast
2:53 PM 66.9 °F 61.0 °F 81% 30.05 in 10.0 mi NNE 8.1 mph - N/A   Overcast
3:53 PM 66.0 °F 61.0 °F 84% 30.05 in 10.0 mi NE 6.9 mph - N/A   Overcast
4:53 PM 66.0 °F 61.0 °F 84% 30.05 in 10.0 mi NE 6.9 mph - N/A   Overcast
5:08 PM 66.2 °F 60.8 °F 83% 30.05 in 10.0 mi East 5.8 mph - N/A   Overcast
5:33 PM 66.2 °F 62.6 °F 88% 30.06 in 10.0 mi NE 5.8 mph - N/A   Overcast
5:53 PM 66.0 °F 62.1 °F 87% 30.06 in 10.0 mi NNE 6.9 mph - N/A   Mostly Cloudy
6:53 PM 64.9 °F 61.0 °F 87% 30.07 in 10.0 mi North 4.6 mph - N/A   Overcast
7:53 PM 64.0 °F 61.0 °F 90% 30.06 in 10.0 mi NNE 5.8 mph - N/A   Clear
8:53 PM 63.0 °F 61.0 °F 93% 30.08 in 10.0 mi Calm Calm - N/A   Clear
9:17 PM 62.6 °F 60.8 °F 94% 30.09 in 10.0 mi NNE 4.6 mph - N/A   Scattered Clouds
9:26 PM 62.6 °F 60.8 °F 94% 30.10 in 10.0 mi NNE 8.1 mph - N/A   Mostly Cloudy
9:34 PM 62.6 °F 60.8 °F 94% 30.10 in 10.0 mi NNE 5.8 mph - N/A   Overcast
9:53 PM 63.0 °F 61.0 °F 93% 30.10 in 10.0 mi NNE 6.9 mph - N/A   Overcast
10:13 PM 62.6 °F 60.8 °F 94% 30.11 in 10.0 mi NNE 3.5 mph - N/A   Mostly Cloudy
10:39 PM 62.6 °F 60.8 °F 94% 30.11 in 10.0 mi NE 4.6 mph - N/A   Scattered Clouds
10:53 PM 63.0 °F 61.0 °F 93% 30.11 in 10.0 mi ENE 5.8 mph - N/A   Mostly Cloudy
11:15 PM 62.6 °F 60.8 °F 94% 30.11 in 10.0 mi NE 4.6 mph - N/A   Scattered Clouds
11:53 PM 61.0 °F 59.0 °F 93% 30.12 in 9.0 mi NE 4.6 mph - N/A   Unknown